Hurricane Symbol View the latest observations near Atlantic Tropical Storm Alberto.

Station IRDT2 - 8776139 - South Bird Island, TX Image indicating link to RSS feed of recent meteorological observations for station IRDT2


Conditions at IRDT2 as of
(3:18 pm CDT)
2018 GMT on 06/19/2024:
     

Click on the graph icon in the table below to see a time series plot of the last five days of that observation.

5-day plot - Wind Direction Wind Direction (WDIR): NE ( 50 deg true )
5-day plot - Wind Speed Wind Speed (WSPD): 18.1 kts
5-day plot - Wind Gust Wind Gust (GST): 22.0 kts
5-day plot - Atmospheric Pressure Atmospheric Pressure (PRES):29.74 in
5-day plot - Wind Speed at 10 Meters Wind Speed at 10 meters (WSPD10M): 21.4 kts
5-day plot - Wind Speed at 20 Meters Wind Speed at 20 meters (WSPD20M): 23.3 kts
5-day plot -  Wind Speed, Wind Gust and Atmospheric Pressure Combined plot of Wind Speed, Gust, and Air Pressure
Previous observations
TIME
(CDT)
5-day plot - Wind Direction
WDIR
 
5-day plot - Wind Speed
WSPD
kts
5-day plot - Wind Gust
GST
kts
5-day plot - Wave Height
WVHT
ft
5-day plot - Dominant Wave Period
DPD
sec
5-day plot - Average Wave Period
APD
sec
5-day plot - Mean Wave Direction
MWD
 
5-day plot - Atmospheric Pressure
PRES
in
5-day plot - Pressure Tendency
PTDY
in
5-day plot - Air Temperature
ATMP
°F
5-day plot - Water Temperature
WTMP
°F
5-day plot - Dew Point
DEWP
°F
5-day plot - Salinity
SAL
psu
5-day plot - Visibility
VIS
nmi
5-day plot - Tide (above MLLW)
TIDE
ft
2024-06-19 03:12 pm NE 17.1 21.0----29.74- 80.2 82.6----
2024-06-19 03:06 pm NE 19.0 22.9----29.75- 80.1 82.4----
2024-06-19 03:00 pm NE 17.1 22.0----29.74-0.03 80.2 82.4----
2024-06-19 02:54 pmENE 17.1 22.9----29.74- 79.2 82.6----
2024-06-19 02:48 pmENE 20.0 25.1----29.74-- 82.6----
2024-06-19 02:42 pm NE 19.0 25.1----29.74- 77.9 82.6----
2024-06-19 02:36 pm NE 29.9 41.0----29.75- 77.4 82.6----
2024-06-19 02:30 pm NE 13.0 15.0----29.74- 82.2 82.6----
2024-06-19 02:24 pmNNE 14.0 18.1----29.74- 82.0 82.6----
2024-06-19 02:18 pmNNE 17.1 20.0----29.74- 81.9 82.6----
2024-06-19 02:12 pm NE 15.0 18.1----29.74- 82.2 82.6----
2024-06-19 02:06 pm NE 15.0 20.0----29.75- 82.0 82.6----
2024-06-19 02:00 pm NE 17.1 21.0----29.75-0.01 81.9 82.6----
2024-06-19 01:54 pm NE 17.1 20.0----29.75- 81.7 82.8----
2024-06-19 01:48 pmENE 15.9 20.0----29.76- 82.0 82.8----
2024-06-19 01:42 pm NE 14.0 19.0----29.77- 82.0 82.8----
2024-06-19 01:36 pmENE 15.0 21.0----29.77- 82.0 82.8----
2024-06-19 01:30 pmENE 15.9 21.0----29.77- 82.0 82.8----
2024-06-19 01:24 pm NE 17.1 24.1----29.77- 81.9 82.8----
2024-06-19 01:18 pm NE 17.1 19.0----29.77- 81.9 82.8----
2024-06-19 01:12 pmENE 15.9 20.0----29.77- 82.0 82.8----
2024-06-19 01:06 pmENE 18.1 22.0----29.77- 81.9 82.8----
2024-06-19 01:00 pm NE 15.9 19.0----29.77+0.02 81.7 82.8----
2024-06-19 12:54 pm NE 15.9 21.0----29.77- 81.7 82.8----
2024-06-19 12:48 pm NE 19.0 22.0----29.77- 81.3 82.8----
2024-06-19 12:42 pm NE 21.0 25.1----29.77- 81.5 82.8----
2024-06-19 12:36 pmENE 21.0 26.0----29.77- 81.3 82.8----
2024-06-19 12:30 pmENE 18.1 22.0----29.77- 81.1 82.8----
2024-06-19 12:24 pmENE 15.9 21.0----29.77- 81.0 82.8----
2024-06-19 12:18 pmENE 15.9 18.1----29.77- 80.8 82.9----
2024-06-19 12:12 pmENE 15.0 20.0----29.77- 80.4 82.9----
2024-06-19 12:06 pmENE 18.1 20.0----29.77- 80.2 82.9----
2024-06-19 12:00 pm E 15.9 20.0----29.77+0.03 80.1 82.9----
2024-06-19 11:54 am E 15.9 22.9----29.77- 79.9 82.9----
2024-06-19 11:48 am E 17.1 22.9----29.77- 79.9 82.9----
2024-06-19 11:42 am E 17.1 21.0----29.77- 79.5 82.9----
2024-06-19 11:36 am E 17.1 20.0----29.77- 79.5 82.9----
2024-06-19 11:30 am E 17.1 22.9----29.77- 80.1 82.9----
2024-06-19 11:24 am E 18.1 21.0----29.76- 81.1 82.9----
2024-06-19 11:18 am E 17.1 20.0----29.76-------
2024-06-19 11:12 am E 18.1 21.0----29.76- 81.1 82.9----
2024-06-19 11:06 am E 14.0 21.0----29.76- 81.1 83.1----
2024-06-19 11:00 am E 17.1 21.0----29.76+0.03 80.4 83.1----
2024-06-19 10:54 am E 15.9 20.0----29.76- 81.0 83.1----
2024-06-19 10:48 am E 15.0 20.0----29.76- 81.0 83.1----
2024-06-19 10:42 am E 14.0 17.1----29.75- 80.6 83.1----
2024-06-19 10:36 am E 19.0 22.9----29.75- 79.5 83.1----
2024-06-19 10:30 am E 18.1 21.0----29.75- 81.1 83.1----
2024-06-19 10:24 amENE 20.0 26.0----29.74- 81.5 83.1----
2024-06-19 10:18 amENE 19.0 25.1----29.75- 81.5 83.1----
2024-06-19 10:12 am NE 18.1 22.9----29.74- 81.0 82.9----
2024-06-19 10:06 am NE 17.1 21.0----29.74- 80.4 82.9----
2024-06-19 10:00 am NE 17.1 22.9----29.75+0.04 80.4 82.9----
2024-06-19 09:54 am NE 19.0 22.9----29.75- 80.4 82.9----
2024-06-19 09:48 am NE 19.0 22.0----29.75- 80.6 82.9----
2024-06-19 09:42 am NE 20.0 24.1----29.75- 80.2 82.9----
2024-06-19 09:36 am NE 20.0 22.9----29.74- 80.8 82.9----
2024-06-19 09:30 amENE 15.0 21.0----29.75- 80.8 82.8----
2024-06-19 09:24 amENE 18.1 21.0----29.75- 80.6 82.8----
2024-06-19 09:18 amENE 17.1 21.0----29.75-- 82.8----
2024-06-19 09:12 amENE 17.1 22.0----29.75- 80.2 82.8----
2024-06-19 09:06 amENE 20.0 24.1----29.74- 79.9 82.8----
2024-06-19 09:00 am E 19.0 24.1----29.74+0.04 80.2 82.8----
2024-06-19 08:54 amENE 18.1 22.0----29.74- 79.7 82.8----
2024-06-19 08:48 amENE 19.0 22.0----29.74- 79.9 82.8----
2024-06-19 08:42 amENE 19.0 24.1----29.73- 79.3 82.9----
2024-06-19 08:36 amENE 22.0 27.0----29.73- 78.6 82.9----
2024-06-19 08:30 amENE 21.0 25.1----29.72- 80.1 82.9----
2024-06-19 08:24 amENE 15.9 21.0----29.73- 81.0 82.9----
2024-06-19 08:18 amENE 19.0 27.0----29.73- 80.6 82.8----
2024-06-19 08:12 amENE 21.0 25.1----29.72- 80.6 82.8----
2024-06-19 08:06 am E 20.0 25.1----29.73- 80.6 82.8----
2024-06-19 08:00 am E 21.0 28.0----29.73+0.03 81.0 82.6----
2024-06-19 07:54 amENE 20.0 26.0----29.72- 81.7 82.6----
2024-06-19 07:48 amENE 18.1 22.0----29.72- 81.7 82.6----
2024-06-19 07:42 amENE 18.1 25.1----29.72- 81.7 82.6----
2024-06-19 07:36 amENE 19.0 22.9----29.72- 81.5 82.6----
2024-06-19 07:30 amENE 20.0 24.1----29.72- 81.0 82.8----
2024-06-19 07:24 amENE 19.0 22.0----29.72- 80.6 82.8----
2024-06-19 07:18 amENE 22.0 28.0----29.72- 80.8 82.9----
2024-06-19 07:12 amENE 20.0 25.1----29.72- 80.6 83.1----
2024-06-19 07:06 amENE 21.0 25.1----29.72- 80.4 83.1----
2024-06-19 07:00 amENE 20.0 25.1----29.71+0.00 80.4 83.1----
2024-06-19 06:54 amENE 21.0 25.1----29.71- 80.1 83.1----
2024-06-19 06:48 amENE 19.0 24.1----29.70-- 83.1----
2024-06-19 06:42 amENE 17.1 20.0----29.70-- 83.1----
2024-06-19 06:36 amENE 15.0 19.0----29.70-- 83.1----
2024-06-19 06:30 amENE 15.9 22.0----29.70- 80.8 83.1----
2024-06-19 06:24 amENE 18.1 22.0----29.70- 80.8 83.1----
2024-06-19 06:18 amENE 19.0 22.0----29.70- 80.6 83.1----
2024-06-19 06:12 amENE 17.1 26.0----29.70- 80.6 83.1----
2024-06-19 06:06 amENE 19.0 24.1----29.70- 80.6 83.1----
2024-06-19 06:00 amENE 17.1 22.9----29.70-0.02 80.6 83.1----
2024-06-19 05:54 amENE 19.0 25.1----29.70- 80.6 83.1----
2024-06-19 05:48 am E 21.0 26.0----29.70- 80.2 83.1----
2024-06-19 05:42 am E 18.1 20.0----29.70- 79.9 83.1----
2024-06-19 05:36 am E 17.1 22.9----29.70- 79.9 83.1----
2024-06-19 05:30 am E 15.0 21.0----29.70- 79.5 83.1----
2024-06-19 05:24 am E 18.1 22.0----29.70- 79.5 83.1----
2024-06-19 05:18 am E 15.9 25.1----29.70- 78.6 83.1----
2024-06-19 05:12 am E 19.0 28.0----29.70- 78.3 83.1----
2024-06-19 05:06 am E 18.1 27.0----29.69- 79.5 83.3----
2024-06-19 05:00 amENE 19.0 22.0----29.70-0.04 80.1 83.3----
2024-06-19 04:54 am E 17.1 22.0----29.70- 80.2 83.3----
2024-06-19 04:48 am E 20.0 25.1----29.70- 80.1 83.3----
2024-06-19 04:42 am E 21.0 26.0----29.70- 81.0 83.5----
2024-06-19 04:36 amENE 17.1 21.0----29.70- 82.0 83.5----
2024-06-19 04:30 am E 15.9 18.1----29.71- 82.0 83.5----
2024-06-19 04:24 am E 18.1 20.0----29.71- 81.7 83.5----
2024-06-19 04:18 am E 17.1 20.0----29.71- 81.3 83.5----
2024-06-19 04:12 am E 17.1 24.1----29.71- 81.3 83.5----
2024-06-19 04:06 am E 14.0 19.0----29.71- 82.2 83.5----
2024-06-19 04:00 amENE 15.9 18.1----29.71-0.06 82.0 83.5----
2024-06-19 03:54 amENE 15.9 20.0----29.71- 82.0 83.5----
2024-06-19 03:48 amENE 15.9 19.0----29.70- 81.9 83.5----
2024-06-19 03:42 amENE 15.0 19.0----29.71- 82.0 83.5----
2024-06-19 03:36 amENE 17.1 21.0----29.71- 81.9 83.5----
2024-06-19 03:30 amENE 18.1 22.0----29.70- 82.0 83.5----
2024-06-19 03:24 amENE 19.0 22.9----29.71- 82.0 83.5----
2024-06-19 03:18 amENE 15.9 21.0----29.71-------
2024-06-19 03:12 amENE 15.0 19.0----29.71- 82.2 83.7----
2024-06-19 03:06 amENE 18.1 20.0----29.71- 82.0 83.7----
2024-06-19 03:00 am E 17.1 21.0----29.72-0.05 82.4 83.7----
2024-06-19 02:54 am E 18.1 22.0----29.72- 82.4 83.7----
2024-06-19 02:48 am E 19.0 22.9----29.73- 82.6 83.8----
2024-06-19 02:42 am E 18.1 22.0----29.73- 82.6 83.8----
2024-06-19 02:36 am E 18.1 22.9----29.73- 82.6 83.8----
2024-06-19 02:30 am E 15.9 22.0----29.73- 82.8 83.8----
2024-06-19 02:24 am E 19.0 22.9----29.73- 82.8 83.8----
2024-06-19 02:18 am E 18.1 22.9----29.73-- 83.8----
2024-06-19 02:12 am E 19.0 22.9----29.74- 82.9 83.8----
2024-06-19 02:06 amENE 15.9 19.0----29.74- 82.6 83.8----
2024-06-19 02:00 amENE 15.9 19.0----29.74-0.03 82.2 83.8----
2024-06-19 01:54 amENE 13.0 17.1----29.75- 82.0 83.8----
2024-06-19 01:48 amENE 15.9 20.0----29.75-- 83.8----
2024-06-19 01:42 am E 17.1 21.0----29.75- 82.8 83.8----
2024-06-19 01:36 am E 15.9 19.0----29.75- 82.6 83.8----
2024-06-19 01:30 am E 15.9 22.9----29.76- 82.9 83.8----
2024-06-19 01:24 amENE 18.1 21.0----29.76- 82.8 84.0----
2024-06-19 01:18 am E 17.1 22.0----29.76- 82.9 84.0----
2024-06-19 01:12 amENE 19.0 22.9----29.76- 82.9 84.0----
2024-06-19 01:06 am E 21.0 22.9----29.76- 82.9 84.0----
2024-06-19 01:00 am E 15.9 21.0----29.76+0.00 83.1 84.0----
2024-06-19 12:54 am E 15.0 19.0----29.77- 83.3 84.0----
2024-06-19 12:48 am E 17.1 20.0----29.77-- 84.2----
2024-06-19 12:42 am E 18.1 22.0----29.77- 83.5 84.2----
2024-06-19 12:36 am E 17.1 24.1----29.77- 83.5 84.2----
2024-06-19 12:30 am E 18.1 21.0----29.77-- 84.2----
2024-06-19 12:24 am E 17.1 22.9----29.77-- 84.2----
2024-06-19 12:18 am E 20.0 25.1----29.77- 82.9 84.2----
2024-06-19 12:12 am E 19.0 22.9----29.76- 83.1 84.4----
2024-06-19 12:06 amENE 21.0 24.1----29.77- 82.9 84.4----
2024-06-19 12:00 amENE 18.1 24.1----29.77+0.02 82.8 84.4----
2024-06-18 11:54 pm E 21.0 26.0----29.77- 82.2 84.4----
2024-06-18 11:48 pmENE 20.0 24.1----29.77- 83.8 84.4----
2024-06-18 11:42 pmENE 20.0 22.9----29.77- 83.8 84.4----
2024-06-18 11:36 pmENE 17.1 22.0----29.77- 83.5 84.4----
2024-06-18 11:30 pm E 17.1 25.1----29.77- 83.7 84.4----
2024-06-18 11:24 pm E 19.0 22.0----29.77- 83.8 84.6----
2024-06-18 11:18 pm E 19.0 26.0----29.77- 84.0 84.6----
2024-06-18 11:12 pmENE 18.1 24.1----29.77- 83.7 84.6----
2024-06-18 11:06 pmENE 20.0 24.1----29.77- 83.7 84.6----
2024-06-18 11:00 pmENE 21.0 26.0----29.77+0.03 83.7 84.6----
2024-06-18 10:54 pm E 20.0 25.1----29.77- 83.1 84.6----
2024-06-18 10:48 pmENE 18.1 21.0----29.77-- 84.6----
2024-06-18 10:42 pmENE 20.0 25.1----29.77- 82.2 84.6----
2024-06-18 10:36 pm E 21.0 26.0----29.77- 82.9 84.6----
2024-06-18 10:30 pmENE 18.1 22.9----29.77- 82.6 84.7----
2024-06-18 10:24 pmENE 19.0 22.0----29.77- 82.2 84.7----
2024-06-18 10:18 pmENE 21.0 26.0----29.77- 81.7 84.7----
2024-06-18 10:12 pm E 19.0 22.9----29.77- 83.7 84.9----
2024-06-18 10:06 pmENE 19.0 24.1----29.76- 83.5 84.9----
2024-06-18 10:00 pmENE 19.0 26.0----29.76+0.02 83.7 84.9----
2024-06-18 09:54 pmENE 19.0 26.0----29.76- 83.5 84.9----
2024-06-18 09:48 pm E 21.0 25.1----29.75- 83.5 84.9----
2024-06-18 09:42 pmENE 20.0 26.0----29.75- 83.3 84.9----
2024-06-18 09:36 pm E 21.0 24.1----29.75- 83.3 84.9----
2024-06-18 09:30 pmENE 20.0 22.9----29.75- 83.3 84.9----
2024-06-18 09:24 pmENE 20.0 25.1----29.75- 83.5 84.9----
2024-06-18 09:18 pmENE 22.0 25.1----29.75-- 84.9----
2024-06-18 09:12 pm E 20.0 25.1----29.75- 83.1 85.1----
2024-06-18 09:06 pmENE 18.1 25.1----29.75- 83.5 85.1----
2024-06-18 09:00 pm E 20.0 25.1----29.75+0.03 83.7 85.1----
2024-06-18 08:54 pmENE 21.0 25.1----29.75- 83.5 85.1----
2024-06-18 08:48 pm E 22.0 27.0----29.75- 83.8 85.1----
2024-06-18 08:42 pm E 21.0 25.1----29.75- 83.7 85.3----
2024-06-18 08:36 pm E 19.0 25.1----29.75- 83.3 85.3----
2024-06-18 08:30 pmENE 21.0 27.0----29.75- 83.1 85.3----
2024-06-18 08:24 pm E 21.0 26.0----29.74- 83.5 85.3----
2024-06-18 08:18 pmENE 21.0 25.1----29.74- 83.8 85.5----
2024-06-18 08:12 pm E 22.0 26.0----29.74- 84.0 85.5----
2024-06-18 08:06 pm E 17.1 24.1----29.74- 83.8 85.5----
2024-06-18 08:00 pm E 21.0 28.0----29.74+0.00 83.7 85.6----
2024-06-18 07:54 pmENE 22.0 27.0----29.74- 83.5 85.6----
2024-06-18 07:48 pmENE 21.0 26.0----29.74- 83.8 85.6----
2024-06-18 07:42 pm E 21.0 24.1----29.74- 83.7 85.6----
2024-06-18 07:36 pmENE 20.0 26.0----29.74- 83.7 85.8----
2024-06-18 07:30 pmENE 21.0 25.1----29.74- 83.5 85.8----
2024-06-18 07:24 pmENE 20.0 25.1----29.74- 84.0 85.8----
2024-06-18 07:18 pm E 20.0 25.1----29.74-- 85.8----
2024-06-18 07:12 pm E 20.0 24.1----29.74- 84.4 86.0----
2024-06-18 07:06 pm E 20.0 24.1----29.73- 84.2 86.0----
2024-06-18 07:00 pm E 21.0 25.1----29.74+0.00 84.4 86.0----
2024-06-18 06:54 pmENE 19.0 24.1----29.73- 84.9 86.0----
2024-06-18 06:48 pmENE 22.9 27.0----29.73- 84.6 86.2----
2024-06-18 06:42 pmENE 18.1 22.9----29.73- 84.7 86.2----
2024-06-18 06:36 pm E 19.0 24.1----29.73- 84.6 86.2----
2024-06-18 06:30 pm E 21.0 24.1----29.73- 84.6 86.2----
2024-06-18 06:24 pm E 22.0 25.1----29.72- 84.6 86.2----
2024-06-18 06:18 pm E 19.0 27.0----29.73- 84.9 86.2----
2024-06-18 06:12 pm E 20.0 25.1----29.72- 84.7 86.2----
2024-06-18 06:06 pm E 19.0 24.1----29.72- 84.6 86.2----
2024-06-18 06:00 pm E 21.0 25.1----29.72-0.02 84.7 86.4----
2024-06-18 05:54 pm E 21.0 25.1----29.73- 84.7 86.4----
2024-06-18 05:48 pm E 19.0 24.1----29.73-- 86.4----
2024-06-18 05:42 pm E 21.0 25.1----29.72- 84.6 86.4----
2024-06-18 05:36 pm E 21.0 25.1----29.72- 84.9 86.4----
2024-06-18 05:30 pm E 19.0 27.0----29.72- 85.3 86.4----
2024-06-18 05:24 pm E 24.1 28.9----29.72- 84.7 86.4----
2024-06-18 05:18 pmENE 19.0 25.1----29.73-- 86.2----
2024-06-18 05:12 pmENE 20.0 28.0----29.73- 83.8 86.2----
2024-06-18 05:06 pm E 22.9 27.0----29.73- 84.0 86.2----
2024-06-18 05:00 pm E 15.9 26.0----29.73-0.02 83.5 86.0----
2024-06-18 04:54 pm E 19.0 22.9----29.73- 83.8 86.0----
2024-06-18 04:48 pm E 22.9 27.0----29.73- 84.4 86.0----
2024-06-18 04:42 pm E 19.0 26.0----29.73- 84.4 86.0----
2024-06-18 04:36 pm E 22.0 28.0----29.73- 84.0 86.0----
2024-06-18 04:30 pmENE 21.0 26.0----29.73- 84.6 86.0----
2024-06-18 04:24 pm E 22.9 28.9----29.73- 84.0 86.0----
2024-06-18 04:18 pm E 22.0 26.0----29.73- 84.6 86.0----
2024-06-18 04:12 pmENE 19.0 26.0----29.73- 85.5 86.0----
2024-06-18 04:06 pm E 20.0 25.1----29.73- 85.3 86.0----
2024-06-18 04:00 pm E 19.0 25.1----29.73-0.03 85.3 86.0----
2024-06-18 03:54 pmENE 20.0 26.0----29.74- 85.6 86.0----
2024-06-18 03:48 pm E 22.0 26.0----29.74-- 86.0----
2024-06-18 03:42 pmENE 22.9 26.0----29.74- 84.9 86.0----
2024-06-18 03:36 pmENE 19.0 26.0----29.74- 85.3 86.0----
2024-06-18 03:30 pmENE 22.9 27.0----29.74- 84.9 85.8----
2024-06-18 03:24 pmENE 20.0 25.1----29.75- 85.1 85.8----
2024-06-18 03:18 pmENE 21.0 24.1----29.75- 84.9 85.8----
2024-06-18 03:12 pmENE 22.9 25.1----29.75- 85.1 85.6----
2024-06-18 03:06 pmENE 19.0 24.1----29.75- 85.6 85.6----
2024-06-18 03:00 pmENE 22.0 25.1----29.75-0.02 85.3 85.5----
2024-06-18 02:54 pmENE 22.0 25.1----29.75- 85.5 85.5----